Year,Month,Day,Hour,Minute,Value (Times are PST for temperature in C)
2011,02,25,00,00,-4.30
2011,02,25,00,01,-4.30
2011,02,25,00,02,-4.30
2011,02,25,00,03,-4.30
2011,02,25,00,04,-4.30
2011,02,25,00,05,-4.30
2011,02,25,00,06,-4.30
2011,02,25,00,07,-4.40
2011,02,25,00,08,-4.40
2011,02,25,00,09,-4.30
2011,02,25,00,10,-4.30
2011,02,25,00,11,-4.30
2011,02,25,00,12,-4.30
2011,02,25,00,13,-4.30
2011,02,25,00,14,-4.40
2011,02,25,00,15,-4.40
2011,02,25,00,16,-4.40
2011,02,25,00,17,-4.40
2011,02,25,00,18,-4.40
2011,02,25,00,19,-4.40
2011,02,25,00,20,-4.40
2011,02,25,00,21,-4.40
2011,02,25,00,22,-4.40
2011,02,25,00,23,-4.40
2011,02,25,00,24,-4.40
2011,02,25,00,25,-4.40
2011,02,25,00,26,-4.40
2011,02,25,00,27,-4.40
2011,02,25,00,28,-4.40
2011,02,25,00,29,-4.40
2011,02,25,00,30,-4.40
2011,02,25,00,31,-4.40
2011,02,25,00,32,-4.40
2011,02,25,00,33,-4.40
2011,02,25,00,34,-4.40
2011,02,25,00,35,-4.40
2011,02,25,00,36,-4.40
2011,02,25,00,37,-4.40
2011,02,25,00,38,-4.40
2011,02,25,00,39,-4.40
2011,02,25,00,40,-4.50
2011,02,25,00,41,-4.50
2011,02,25,00,42,-4.50
2011,02,25,00,43,-4.50
2011,02,25,00,44,-4.50
2011,02,25,00,45,-4.50
2011,02,25,00,46,-4.50
2011,02,25,00,47,-4.50
2011,02,25,00,48,-4.50
2011,02,25,00,49,-4.40
2011,02,25,00,50,-4.40
2011,02,25,00,51,-4.40
2011,02,25,00,52,-4.40
2011,02,25,00,53,-4.50
2011,02,25,00,54,-4.50
2011,02,25,00,55,-4.50
2011,02,25,00,56,-4.50
2011,02,25,00,57,-4.60
2011,02,25,00,58,-4.60
2011,02,25,00,59,-4.60
2011,02,25,01,00,-4.60
2011,02,25,01,01,-4.60
2011,02,25,01,02,-4.60
2011,02,25,01,03,-4.60
2011,02,25,01,04,-4.60
2011,02,25,01,05,-4.60
2011,02,25,01,06,-4.60
2011,02,25,01,07,-4.60
2011,02,25,01,08,-4.60
2011,02,25,01,09,-4.60
2011,02,25,01,10,-4.70
2011,02,25,01,11,-4.70
2011,02,25,01,12,-4.70
2011,02,25,01,13,-4.70
2011,02,25,01,14,-4.70
2011,02,25,01,15,-4.70
2011,02,25,01,16,-4.70
2011,02,25,01,17,-4.70
2011,02,25,01,18,-4.70
2011,02,25,01,19,-4.70
2011,02,25,01,20,-4.70
2011,02,25,01,21,-4.70
2011,02,25,01,22,-4.70
2011,02,25,01,23,-4.80
2011,02,25,01,24,-4.80
2011,02,25,01,25,-4.80
2011,02,25,01,26,-4.80
2011,02,25,01,27,-4.80
2011,02,25,01,28,-4.80
2011,02,25,01,29,-4.80
2011,02,25,01,30,-4.80
2011,02,25,01,31,-4.80
2011,02,25,01,32,-4.80
2011,02,25,01,33,-4.80
2011,02,25,01,34,-4.80
2011,02,25,01,35,-4.80
2011,02,25,01,36,-4.80
2011,02,25,01,37,-4.80
2011,02,25,01,38,-4.90
2011,02,25,01,39,-4.90
2011,02,25,01,40,-4.90
2011,02,25,01,41,-4.90
2011,02,25,01,42,-4.90
2011,02,25,01,43,-4.90
2011,02,25,01,44,-4.90
2011,02,25,01,45,-4.90
2011,02,25,01,46,-4.90
2011,02,25,01,47,-4.90
2011,02,25,01,48,-4.90
2011,02,25,01,49,-4.90
2011,02,25,01,50,-4.90
2011,02,25,01,51,-4.90
2011,02,25,01,52,-4.90
2011,02,25,01,53,-4.90
2011,02,25,01,54,-4.90
2011,02,25,01,55,-4.90
2011,02,25,01,56,-4.90
2011,02,25,01,57,-4.90
2011,02,25,01,58,-4.90
2011,02,25,01,59,-4.90
2011,02,25,02,00,-4.90
2011,02,25,02,01,-4.90
2011,02,25,02,02,-4.90
2011,02,25,02,03,-4.90
2011,02,25,02,04,-4.90
2011,02,25,02,05,-4.90
2011,02,25,02,06,-4.90
2011,02,25,02,07,-4.90
2011,02,25,02,08,-4.90
2011,02,25,02,09,-4.90
2011,02,25,02,10,-4.90
2011,02,25,02,11,-4.90
2011,02,25,02,12,-4.90
2011,02,25,02,13,-5.00
2011,02,25,02,14,-5.00
2011,02,25,02,15,-5.00
2011,02,25,02,16,-5.00
2011,02,25,02,17,-5.00
2011,02,25,02,18,-5.00
2011,02,25,02,19,-5.00
2011,02,25,02,20,-5.00
2011,02,25,02,21,-5.00
2011,02,25,02,22,-5.00
2011,02,25,02,23,-5.00
2011,02,25,02,24,-5.00
2011,02,25,02,25,-5.00
2011,02,25,02,26,-5.10
2011,02,25,02,27,-5.10
2011,02,25,02,28,-5.10
2011,02,25,02,29,-5.10
2011,02,25,02,30,-5.00
2011,02,25,02,31,-5.10
2011,02,25,02,32,-5.10
2011,02,25,02,33,-5.10
2011,02,25,02,34,-5.00
2011,02,25,02,35,-5.00
2011,02,25,02,36,-5.00
2011,02,25,02,37,-5.00
2011,02,25,02,38,-5.00
2011,02,25,02,39,-5.00
2011,02,25,02,40,-5.00
2011,02,25,02,41,-5.00
2011,02,25,02,42,-5.00
2011,02,25,02,43,-5.10
2011,02,25,02,44,-5.10
2011,02,25,02,45,-5.10
2011,02,25,02,46,-5.10
2011,02,25,02,47,-5.10
2011,02,25,02,48,-5.10
2011,02,25,02,49,-5.10
2011,02,25,02,50,-5.10
2011,02,25,02,51,-5.10
2011,02,25,02,52,-5.10
2011,02,25,02,53,-5.10
2011,02,25,02,54,-5.10
2011,02,25,02,55,-5.10
2011,02,25,02,56,-5.10
2011,02,25,02,57,-5.10
2011,02,25,02,58,-5.10
2011,02,25,02,59,-5.10
2011,02,25,03,00,-5.10
2011,02,25,03,01,-5.10
2011,02,25,03,02,-5.10
2011,02,25,03,03,-5.10
2011,02,25,03,04,-5.10
2011,02,25,03,05,-5.10
2011,02,25,03,06,-5.10
2011,02,25,03,07,-5.10
2011,02,25,03,08,-5.10
2011,02,25,03,09,-5.10
2011,02,25,03,10,-5.10
2011,02,25,03,11,-5.10
2011,02,25,03,12,-5.10
2011,02,25,03,13,-5.10
2011,02,25,03,14,-5.10
2011,02,25,03,15,-5.10
2011,02,25,03,16,-5.10
2011,02,25,03,17,-5.10
2011,02,25,03,18,-5.10
2011,02,25,03,19,-5.10
2011,02,25,03,20,-5.10
2011,02,25,03,21,-5.10
2011,02,25,03,22,-5.10
2011,02,25,03,23,-5.10
2011,02,25,03,24,-5.10
2011,02,25,03,25,-5.10
2011,02,25,03,26,-5.10
2011,02,25,03,27,-5.10
2011,02,25,03,28,-5.10
2011,02,25,03,29,-5.20
2011,02,25,03,30,-5.20
2011,02,25,03,31,-5.20
2011,02,25,03,32,-5.20
2011,02,25,03,33,-5.20
2011,02,25,03,34,-5.20
2011,02,25,03,35,-5.20
2011,02,25,03,36,-5.20
2011,02,25,03,37,-5.20
2011,02,25,03,38,-5.20
2011,02,25,03,39,-5.30
2011,02,25,03,40,-5.30
2011,02,25,03,41,-5.30
2011,02,25,03,42,-5.30
2011,02,25,03,43,-5.20
2011,02,25,03,44,-5.20
2011,02,25,03,45,-5.20
2011,02,25,03,46,-5.20
2011,02,25,03,47,-5.20
2011,02,25,03,48,-5.20
2011,02,25,03,49,-5.20
2011,02,25,03,50,-5.20
2011,02,25,03,51,-5.20
2011,02,25,03,52,-5.20
2011,02,25,03,53,-5.20
2011,02,25,03,54,-5.20
2011,02,25,03,55,-5.20
2011,02,25,03,56,-5.20
2011,02,25,03,57,-5.20
2011,02,25,03,58,-5.20
2011,02,25,03,59,-5.30
2011,02,25,04,00,-5.30
2011,02,25,04,01,-5.30
2011,02,25,04,02,-5.40
2011,02,25,04,03,-5.40
2011,02,25,04,04,-5.40
2011,02,25,04,05,-5.40
2011,02,25,04,06,-5.40
2011,02,25,04,07,-5.40
2011,02,25,04,08,-5.40
2011,02,25,04,09,-5.40
2011,02,25,04,10,-5.40
2011,02,25,04,11,-5.40
2011,02,25,04,12,-5.40
2011,02,25,04,13,-5.40
2011,02,25,04,14,-5.40
2011,02,25,04,15,-5.40
2011,02,25,04,16,-5.40
2011,02,25,04,17,-5.40
2011,02,25,04,18,-5.40
2011,02,25,04,19,-5.40
2011,02,25,04,20,-5.40
2011,02,25,04,21,-5.40
2011,02,25,04,22,-5.50
2011,02,25,04,23,-5.50
2011,02,25,04,24,-5.50
2011,02,25,04,25,-5.50
2011,02,25,04,26,-5.50
2011,02,25,04,27,-5.50
2011,02,25,04,28,-5.50
2011,02,25,04,29,-5.60
2011,02,25,04,30,-5.60
2011,02,25,04,31,-5.60
2011,02,25,04,32,-5.60
2011,02,25,04,33,-5.60
2011,02,25,04,34,-5.60
2011,02,25,04,35,-5.60
2011,02,25,04,36,-5.60
2011,02,25,04,37,-5.60
2011,02,25,04,38,-5.60
2011,02,25,04,39,-5.60
2011,02,25,04,40,-5.60
2011,02,25,04,41,-5.60
2011,02,25,04,42,-5.60
2011,02,25,04,43,-5.60
2011,02,25,04,44,-5.50
2011,02,25,04,45,-5.50
2011,02,25,04,46,-5.60
2011,02,25,04,47,-5.60
2011,02,25,04,48,-5.60
2011,02,25,04,49,-5.60
2011,02,25,04,50,-5.60
2011,02,25,04,51,-5.60
2011,02,25,04,52,-5.60
2011,02,25,04,53,-5.60
2011,02,25,04,54,-5.60
2011,02,25,04,55,-5.60
2011,02,25,04,56,-5.60
2011,02,25,04,57,-5.60
2011,02,25,04,58,-5.50
2011,02,25,04,59,-5.50
2011,02,25,05,00,-5.50
2011,02,25,05,01,-5.50
2011,02,25,05,02,-5.50
2011,02,25,05,03,-5.50
2011,02,25,05,04,-5.50
2011,02,25,05,05,-5.50
2011,02,25,05,06,-5.50
2011,02,25,05,07,-5.50
2011,02,25,05,08,-5.50
2011,02,25,05,09,-5.50
2011,02,25,05,10,-5.50
2011,02,25,05,11,-5.50
2011,02,25,05,12,-5.50
2011,02,25,05,13,-5.50
2011,02,25,05,14,-5.50
2011,02,25,05,15,-5.50
2011,02,25,05,16,-5.50
2011,02,25,05,17,-5.50
2011,02,25,05,18,-5.60
2011,02,25,05,19,-5.60
2011,02,25,05,20,-5.60
2011,02,25,05,21,-5.60
2011,02,25,05,22,-5.60
2011,02,25,05,23,-5.60
2011,02,25,05,24,-5.60
2011,02,25,05,25,-5.50
2011,02,25,05,26,-5.50
2011,02,25,05,27,-5.50
2011,02,25,05,28,-5.50
2011,02,25,05,29,-5.40
2011,02,25,05,30,-5.40
2011,02,25,05,31,-5.40
2011,02,25,05,32,-5.40
2011,02,25,05,33,-5.50
2011,02,25,05,34,-5.50
2011,02,25,05,35,-5.50
2011,02,25,05,36,-5.50
2011,02,25,05,37,-5.60
2011,02,25,05,38,-5.60
2011,02,25,05,39,-5.60
2011,02,25,05,40,-5.60
2011,02,25,05,41,-5.60
2011,02,25,05,42,-5.60
2011,02,25,05,43,-5.60
2011,02,25,05,44,-5.60
2011,02,25,05,45,-5.60
2011,02,25,05,46,-5.60
2011,02,25,05,47,-5.60
2011,02,25,05,48,-5.60
2011,02,25,05,49,-5.60
2011,02,25,05,50,-5.60
2011,02,25,05,51,-5.60
2011,02,25,05,52,-5.60
2011,02,25,05,53,-5.60
2011,02,25,05,54,-5.60
2011,02,25,05,55,-5.70
2011,02,25,05,56,-5.70
2011,02,25,05,57,-5.70
2011,02,25,05,58,-5.70
2011,02,25,05,59,-5.70
2011,02,25,06,00,-5.70
2011,02,25,06,01,-5.70
2011,02,25,06,02,-5.70
2011,02,25,06,03,-5.70
2011,02,25,06,04,-5.70
2011,02,25,06,05,-5.70
2011,02,25,06,06,-5.70
2011,02,25,06,07,-5.70
2011,02,25,06,08,-5.70
2011,02,25,06,09,-5.70
2011,02,25,06,10,-5.70
2011,02,25,06,11,-5.70
2011,02,25,06,12,-5.70
2011,02,25,06,13,-5.70
2011,02,25,06,14,-5.70
2011,02,25,06,15,-5.70
2011,02,25,06,16,-5.70
2011,02,25,06,17,-5.70
2011,02,25,06,18,-5.70
2011,02,25,06,19,-5.70
2011,02,25,06,20,-5.70
2011,02,25,06,21,-5.70
2011,02,25,06,22,-5.70
2011,02,25,06,23,-5.70
2011,02,25,06,24,-5.80
2011,02,25,06,25,-5.70
2011,02,25,06,26,-5.80
2011,02,25,06,27,-5.80
2011,02,25,06,28,-5.80
2011,02,25,06,29,-5.80
2011,02,25,06,30,-5.80
2011,02,25,06,31,-5.80
2011,02,25,06,32,-5.80
2011,02,25,06,33,-5.90
2011,02,25,06,34,-5.90
2011,02,25,06,35,-5.90
2011,02,25,06,36,-5.90
2011,02,25,06,37,-5.90
2011,02,25,06,38,-5.90
2011,02,25,06,39,-5.90
2011,02,25,06,40,-5.90
2011,02,25,06,41,-5.90
2011,02,25,06,42,-5.90
2011,02,25,06,43,-5.80
2011,02,25,06,44,-5.80
2011,02,25,06,45,-5.80
2011,02,25,06,46,-5.80
2011,02,25,06,47,-5.80
2011,02,25,06,48,-5.80
2011,02,25,06,49,-5.80
2011,02,25,06,50,-5.80
2011,02,25,06,51,-5.80
2011,02,25,06,52,-5.80
2011,02,25,06,53,-5.80
2011,02,25,06,54,-5.80
2011,02,25,06,55,-5.80
2011,02,25,06,56,-5.80
2011,02,25,06,57,-5.80
2011,02,25,06,58,-5.80
2011,02,25,06,59,-5.80
2011,02,25,07,00,-5.80
2011,02,25,07,01,-5.80
2011,02,25,07,02,-5.80
2011,02,25,07,03,-5.90
2011,02,25,07,04,-5.90
2011,02,25,07,05,-5.90
2011,02,25,07,06,-5.90
2011,02,25,07,07,-5.90
2011,02,25,07,08,-5.90
2011,02,25,07,09,-5.90
2011,02,25,07,10,-5.90
2011,02,25,07,11,-5.90
2011,02,25,07,12,-5.90
2011,02,25,07,13,-5.90
2011,02,25,07,14,-5.90
2011,02,25,07,15,-5.90
2011,02,25,07,16,-5.90
2011,02,25,07,17,-5.90
2011,02,25,07,18,-5.90
2011,02,25,07,19,-6.00
2011,02,25,07,20,-6.00
2011,02,25,07,21,-6.10
2011,02,25,07,22,-6.10
2011,02,25,07,23,-6.10
2011,02,25,07,24,-6.20
2011,02,25,07,25,-6.20
2011,02,25,07,26,-6.20
2011,02,25,07,27,-6.20
2011,02,25,07,28,-6.20
2011,02,25,07,29,-6.20
2011,02,25,07,30,-6.30
2011,02,25,07,31,-6.30
2011,02,25,07,32,-6.30
2011,02,25,07,33,-6.30
2011,02,25,07,34,-6.30
2011,02,25,07,35,-6.40
2011,02,25,07,36,-6.40
2011,02,25,07,37,-6.40
2011,02,25,07,38,-6.40
2011,02,25,07,39,-6.40
2011,02,25,07,40,-6.40
2011,02,25,07,41,-6.40
2011,02,25,07,42,-6.40
2011,02,25,07,43,-6.40
2011,02,25,07,44,-6.50
2011,02,25,07,45,-6.50
2011,02,25,07,46,-6.50
2011,02,25,07,47,-6.50
2011,02,25,07,48,-6.60
2011,02,25,07,49,-6.60
2011,02,25,07,50,-6.60
2011,02,25,07,51,-6.60
2011,02,25,07,52,-6.60
2011,02,25,07,53,-6.60
2011,02,25,07,54,-6.60
2011,02,25,07,55,-6.70
2011,02,25,07,56,-6.70
2011,02,25,07,57,-6.70
2011,02,25,07,58,-6.60
2011,02,25,07,59,-6.60
2011,02,25,08,00,-6.60
2011,02,25,08,01,-6.60
2011,02,25,08,02,-6.50
2011,02,25,08,03,-6.50
2011,02,25,08,04,-6.40
2011,02,25,08,05,-6.40
2011,02,25,08,06,-6.40
2011,02,25,08,07,-6.40
2011,02,25,08,08,-6.40
2011,02,25,08,09,-6.40
2011,02,25,08,10,-6.40
2011,02,25,08,11,-6.40
2011,02,25,08,12,-6.30
2011,02,25,08,13,-6.30
2011,02,25,08,14,-6.30
2011,02,25,08,15,-6.20
2011,02,25,08,16,-6.20
2011,02,25,08,17,-6.10
2011,02,25,08,18,-6.00
2011,02,25,08,19,-5.90
2011,02,25,08,20,-5.90
2011,02,25,08,21,-5.90
2011,02,25,08,22,-5.90
2011,02,25,08,23,-5.90
2011,02,25,08,24,-5.80
2011,02,25,08,25,-5.80
2011,02,25,08,26,-5.80
2011,02,25,08,27,-5.70
2011,02,25,08,28,-5.70
2011,02,25,08,29,-5.70
2011,02,25,08,30,-5.70
2011,02,25,08,31,-5.70
2011,02,25,08,32,-5.70
2011,02,25,08,33,-5.70
2011,02,25,08,34,-5.60
2011,02,25,08,35,-5.60
2011,02,25,08,36,-5.60
2011,02,25,08,37,-5.50
2011,02,25,08,38,-5.50
2011,02,25,08,39,-5.40
2011,02,25,08,40,-5.40
2011,02,25,08,41,-5.40
2011,02,25,08,42,-5.30
2011,02,25,08,43,-5.30
2011,02,25,08,44,-5.30
2011,02,25,08,45,-5.30
2011,02,25,08,46,-5.30
2011,02,25,08,47,-5.20
2011,02,25,08,48,-5.20
2011,02,25,08,49,-5.20
2011,02,25,08,50,-5.20
2011,02,25,08,51,-5.20
2011,02,25,08,52,-5.20
2011,02,25,08,53,-5.20
2011,02,25,08,54,-5.20
2011,02,25,08,55,-5.10
2011,02,25,08,56,-5.10
2011,02,25,08,57,-5.10
2011,02,25,08,58,-5.10
2011,02,25,08,59,-5.10
2011,02,25,09,00,-5.10
2011,02,25,09,01,-5.00
2011,02,25,09,02,-5.00
2011,02,25,09,03,-5.00
2011,02,25,09,04,-5.00
2011,02,25,09,05,-4.90
2011,02,25,09,06,-4.90
2011,02,25,09,07,-4.90
2011,02,25,09,08,-4.90
2011,02,25,09,09,-4.80
2011,02,25,09,10,-4.80
2011,02,25,09,11,-4.70
2011,02,25,09,12,-4.70
2011,02,25,09,13,-4.60
2011,02,25,09,14,-4.60
2011,02,25,09,15,-4.50
2011,02,25,09,16,-4.50
2011,02,25,09,17,-4.50
2011,02,25,09,18,-4.50
2011,02,25,09,19,-4.50
2011,02,25,09,20,-4.50
2011,02,25,09,21,-4.50
2011,02,25,09,22,-4.40
2011,02,25,09,23,-4.40
2011,02,25,09,24,-4.40
2011,02,25,09,25,-4.40
2011,02,25,09,26,-4.30
2011,02,25,09,27,-4.30
2011,02,25,09,28,-4.30
2011,02,25,09,29,-4.30
2011,02,25,09,30,-4.30
2011,02,25,09,31,-4.30
2011,02,25,09,32,-4.30
2011,02,25,09,33,-4.30
2011,02,25,09,34,-4.30
2011,02,25,09,35,-4.20
2011,02,25,09,36,-4.20
2011,02,25,09,37,-4.10
2011,02,25,09,38,-4.10
2011,02,25,09,39,-4.00
2011,02,25,09,40,-4.10
2011,02,25,09,41,-4.10
2011,02,25,09,42,-4.20
2011,02,25,09,43,-4.20
2011,02,25,09,44,-4.20
2011,02,25,09,45,-4.20
2011,02,25,09,46,-4.20
2011,02,25,09,47,-4.20
2011,02,25,09,48,-4.20
2011,02,25,09,49,-4.20
2011,02,25,09,50,-4.20
2011,02,25,09,51,-4.20
2011,02,25,09,52,-4.20
2011,02,25,09,53,-4.20
2011,02,25,09,54,-4.20
2011,02,25,09,55,-4.10
2011,02,25,09,56,-4.10
2011,02,25,09,57,-4.10
2011,02,25,09,58,-4.10
2011,02,25,09,59,-4.10
2011,02,25,10,00,-4.10
2011,02,25,10,01,-4.00
2011,02,25,10,02,-4.00
2011,02,25,10,03,-4.10
2011,02,25,10,04,-4.10
2011,02,25,10,05,-4.10
2011,02,25,10,06,-4.20
2011,02,25,10,07,-4.20
2011,02,25,10,08,-4.20
2011,02,25,10,09,-4.20
2011,02,25,10,10,-4.20
2011,02,25,10,11,-4.20
2011,02,25,10,12,-4.20
2011,02,25,10,13,-4.20
2011,02,25,10,14,-4.30
2011,02,25,10,15,-4.30
2011,02,25,10,16,-4.30
2011,02,25,10,17,-4.30
2011,02,25,10,18,-4.30
2011,02,25,10,19,-4.20
2011,02,25,10,20,-4.20
2011,02,25,10,21,-4.20
2011,02,25,10,22,-4.20
2011,02,25,10,23,-4.20
2011,02,25,10,24,-4.20
2011,02,25,10,25,-4.20
2011,02,25,10,26,-4.20
2011,02,25,10,27,-4.10
2011,02,25,10,28,-4.10
2011,02,25,10,29,-4.00
2011,02,25,10,30,-3.90
2011,02,25,10,31,-3.80
2011,02,25,10,32,-3.80
2011,02,25,10,33,-3.70
2011,02,25,10,34,-3.70
2011,02,25,10,35,-3.60
2011,02,25,10,36,-3.60
2011,02,25,10,37,-3.60
2011,02,25,10,38,-3.50
2011,02,25,10,39,-3.50
2011,02,25,10,40,-3.40
2011,02,25,10,41,-3.40
2011,02,25,10,42,-3.40
2011,02,25,10,43,-3.40
2011,02,25,10,44,-3.40
2011,02,25,10,45,-3.30
2011,02,25,10,46,-3.20
2011,02,25,10,47,-3.20
2011,02,25,10,48,-3.20
2011,02,25,10,49,-3.20
2011,02,25,10,50,-3.30
2011,02,25,10,51,-3.20
2011,02,25,10,52,-3.20
2011,02,25,10,53,-3.20
2011,02,25,10,54,-3.20
2011,02,25,10,55,-3.20
2011,02,25,10,56,-3.20
2011,02,25,10,57,-3.10
2011,02,25,10,58,-3.00
2011,02,25,10,59,-3.00
2011,02,25,11,00,-3.10
2011,02,25,11,01,-3.00
2011,02,25,11,02,-3.00
2011,02,25,11,03,-3.00
2011,02,25,11,04,-2.90
2011,02,25,11,05,-2.90
2011,02,25,11,06,-2.80
2011,02,25,11,07,-2.70
2011,02,25,11,08,-2.70
2011,02,25,11,09,-2.70
2011,02,25,11,10,-2.70
2011,02,25,11,11,-2.70
2011,02,25,11,12,-2.70
2011,02,25,11,13,-2.70
2011,02,25,11,14,-2.70
2011,02,25,11,15,-2.70
2011,02,25,11,16,-2.70
2011,02,25,11,17,-2.70
2011,02,25,11,18,-2.70
2011,02,25,11,19,-2.70
2011,02,25,11,20,-2.60
2011,02,25,11,21,-2.60
2011,02,25,11,22,-2.60
2011,02,25,11,23,-2.70
2011,02,25,11,24,-2.70
2011,02,25,11,25,-2.80
2011,02,25,11,26,-2.80
2011,02,25,11,27,-2.80
2011,02,25,11,28,-2.80
2011,02,25,11,29,-2.70
2011,02,25,11,30,-2.70
2011,02,25,11,31,-2.70
2011,02,25,11,32,-2.70
2011,02,25,11,33,-2.80
2011,02,25,11,34,-2.80
2011,02,25,11,35,-2.80
2011,02,25,11,36,-2.90
2011,02,25,11,37,-2.90
2011,02,25,11,38,-2.90
2011,02,25,11,39,-2.90
2011,02,25,11,40,-2.90
2011,02,25,11,41,-2.90
2011,02,25,11,42,-2.90
2011,02,25,11,43,-2.90
2011,02,25,11,44,-2.90
2011,02,25,11,45,-2.90
2011,02,25,11,46,-2.90
2011,02,25,11,47,-2.90
2011,02,25,11,48,-2.90
2011,02,25,11,49,-2.90
2011,02,25,11,50,-2.80
2011,02,25,11,51,-2.80
2011,02,25,11,52,-2.80
2011,02,25,11,53,-2.80
2011,02,25,11,54,-2.80
2011,02,25,11,55,-2.80
2011,02,25,11,56,-2.80
2011,02,25,11,57,-2.80
2011,02,25,11,58,-2.80
2011,02,25,11,59,-2.80
2011,02,25,12,00,-2.80
2011,02,25,12,01,-2.80
2011,02,25,12,02,-2.80
2011,02,25,12,03,-2.80
2011,02,25,12,04,-2.80
2011,02,25,12,05,-2.80
2011,02,25,12,06,-2.80
2011,02,25,12,07,-2.80
2011,02,25,12,08,-2.70
2011,02,25,12,09,-2.70
2011,02,25,12,10,-2.70
2011,02,25,12,11,-2.70
2011,02,25,12,12,-2.60
2011,02,25,12,13,-2.60
2011,02,25,12,14,-2.60
2011,02,25,12,15,-2.60
2011,02,25,12,16,-2.60
2011,02,25,12,17,-2.60
2011,02,25,12,18,-2.60
2011,02,25,12,19,-2.50
2011,02,25,12,20,-2.50
2011,02,25,12,21,-2.40
2011,02,25,12,22,-2.30
2011,02,25,12,23,-2.30
2011,02,25,12,24,-2.30
2011,02,25,12,25,-2.30
2011,02,25,12,26,-2.30
2011,02,25,12,27,-2.30
2011,02,25,12,28,-2.20
2011,02,25,12,29,-2.30
2011,02,25,12,30,-2.30
2011,02,25,12,31,-2.30
2011,02,25,12,32,-2.30
2011,02,25,12,33,-2.30
2011,02,25,12,34,-2.30
2011,02,25,12,35,-2.30
2011,02,25,12,36,-2.30
2011,02,25,12,37,-2.30
2011,02,25,12,38,-2.30
2011,02,25,12,39,-2.20
2011,02,25,12,40,-2.20
2011,02,25,12,41,-2.30
2011,02,25,12,42,-2.40
2011,02,25,12,43,-2.40
2011,02,25,12,44,-2.30
2011,02,25,12,45,-2.30
2011,02,25,12,46,-2.20
2011,02,25,12,47,-2.20
2011,02,25,12,48,-2.20
2011,02,25,12,49,-2.20
2011,02,25,12,50,-2.20
2011,02,25,12,51,-2.20
2011,02,25,12,52,-2.20
2011,02,25,12,53,-2.10
2011,02,25,12,54,-2.10
2011,02,25,12,55,-2.10
2011,02,25,12,56,-2.10
2011,02,25,12,57,-2.10
2011,02,25,12,58,-2.10
2011,02,25,12,59,-2.10
2011,02,25,13,00,-2.20
2011,02,25,13,01,-2.20
2011,02,25,13,02,-2.20
2011,02,25,13,03,-2.20
2011,02,25,13,04,-2.20
2011,02,25,13,05,-2.20
2011,02,25,13,06,-2.20
2011,02,25,13,07,-2.20
2011,02,25,13,08,-2.20
2011,02,25,13,09,-2.20
2011,02,25,13,10,-2.20
2011,02,25,13,11,-2.20
2011,02,25,13,12,-2.20
2011,02,25,13,13,-2.20
2011,02,25,13,14,-2.20
2011,02,25,13,15,-2.20
2011,02,25,13,16,-2.20
2011,02,25,13,17,-2.20
2011,02,25,13,18,-2.20
2011,02,25,13,19,-2.10
2011,02,25,13,20,-2.10
2011,02,25,13,21,-2.10
2011,02,25,13,22,-2.00
2011,02,25,13,23,-1.90
2011,02,25,13,24,-1.90
2011,02,25,13,25,-1.80
2011,02,25,13,26,-1.80
2011,02,25,13,27,-1.70
2011,02,25,13,28,-1.70
2011,02,25,13,29,-1.60
2011,02,25,13,30,-1.60
2011,02,25,13,31,-1.60
2011,02,25,13,32,-1.60
2011,02,25,13,33,-1.60
2011,02,25,13,34,-1.60
2011,02,25,13,35,-1.70
2011,02,25,13,36,-1.70
2011,02,25,13,37,-1.70
2011,02,25,13,38,-1.80
2011,02,25,13,39,-1.80
2011,02,25,13,40,-1.80
2011,02,25,13,41,-1.70
2011,02,25,13,42,-1.70
2011,02,25,13,43,-1.70
2011,02,25,13,44,-1.70
2011,02,25,13,45,-1.70
2011,02,25,13,46,-1.70
2011,02,25,13,47,-1.70
2011,02,25,13,48,-1.70
2011,02,25,13,49,-1.70
2011,02,25,13,50,-1.70
2011,02,25,13,51,-1.60
2011,02,25,13,52,-1.60
2011,02,25,13,53,-1.50
2011,02,25,13,54,-1.50
2011,02,25,13,55,-1.40
2011,02,25,13,56,-1.40
2011,02,25,13,57,-1.50
2011,02,25,13,58,-1.60
2011,02,25,13,59,-1.60
2011,02,25,14,00,-1.60
2011,02,25,14,01,-1.60
2011,02,25,14,02,-1.70
2011,02,25,14,03,-1.80
2011,02,25,14,04,-1.80
2011,02,25,14,05,-1.80
2011,02,25,14,06,-1.70
2011,02,25,14,07,-1.70
2011,02,25,14,08,-1.70
2011,02,25,14,09,-1.70
2011,02,25,14,10,-1.70
2011,02,25,14,11,-1.70
2011,02,25,14,12,-1.70
2011,02,25,14,13,-1.80
2011,02,25,14,14,-1.80
2011,02,25,14,15,-1.70
2011,02,25,14,16,-1.70
2011,02,25,14,17,-1.70
2011,02,25,14,18,-1.70
2011,02,25,14,19,-1.80
2011,02,25,14,20,-1.70
2011,02,25,14,21,-1.70
2011,02,25,14,22,-1.70
2011,02,25,14,23,-1.60
2011,02,25,14,24,-1.60
2011,02,25,14,25,-1.50
2011,02,25,14,26,-1.50
2011,02,25,14,27,-1.40
2011,02,25,14,28,-1.40
2011,02,25,14,29,-1.40
2011,02,25,14,30,-1.40
2011,02,25,14,31,-1.40
2011,02,25,14,32,-1.40
2011,02,25,14,33,-1.50
2011,02,25,14,34,-1.50
2011,02,25,14,35,-1.50
2011,02,25,14,36,-1.50
2011,02,25,14,37,-1.40
2011,02,25,14,38,-1.40
2011,02,25,14,39,-1.30
2011,02,25,14,40,-1.30
2011,02,25,14,41,-1.30
2011,02,25,14,42,-1.30
2011,02,25,14,43,-1.40
2011,02,25,14,44,-1.40
2011,02,25,14,45,-1.40
2011,02,25,14,46,-1.40
2011,02,25,14,47,-1.40
2011,02,25,14,48,-1.40
2011,02,25,14,49,-1.40
2011,02,25,14,50,-1.50
2011,02,25,14,51,-1.50
2011,02,25,14,52,-1.60
2011,02,25,14,53,-1.60
2011,02,25,14,54,-1.70
2011,02,25,14,55,-1.70
2011,02,25,14,56,-1.70
2011,02,25,14,57,-1.80
2011,02,25,14,58,-1.80
2011,02,25,14,59,-1.80
2011,02,25,15,00,-1.80
2011,02,25,15,01,-1.80
2011,02,25,15,02,-1.80
2011,02,25,15,03,-1.80
2011,02,25,15,04,-1.80
2011,02,25,15,05,-1.80
2011,02,25,15,06,-1.80
2011,02,25,15,07,-1.80
2011,02,25,15,08,-1.70
2011,02,25,15,09,-1.70
2011,02,25,15,10,-1.70
2011,02,25,15,11,-1.70
2011,02,25,15,12,-1.70
2011,02,25,15,13,-1.80
2011,02,25,15,14,-1.80
2011,02,25,15,15,-1.80
2011,02,25,15,16,-1.70
2011,02,25,15,17,-1.70
2011,02,25,15,18,-1.70
2011,02,25,15,19,-1.70
2011,02,25,15,20,-1.70
2011,02,25,15,21,-1.70
2011,02,25,15,22,-1.80
2011,02,25,15,23,-1.80
2011,02,25,15,24,-1.80
2011,02,25,15,25,-1.80
2011,02,25,15,26,-1.80
2011,02,25,15,27,-1.80
2011,02,25,15,28,-1.80
2011,02,25,15,29,-1.80
2011,02,25,15,30,-1.80
2011,02,25,15,31,-1.80
2011,02,25,15,32,-1.80
2011,02,25,15,33,-1.80
2011,02,25,15,34,-1.80
2011,02,25,15,35,-1.80
2011,02,25,15,36,-1.80
2011,02,25,15,37,-1.80
2011,02,25,15,38,-1.80
2011,02,25,15,39,-1.80
2011,02,25,15,40,-1.70
2011,02,25,15,41,-1.70
2011,02,25,15,42,-1.60
2011,02,25,15,43,-1.60
2011,02,25,15,44,-1.60
2011,02,25,15,45,-1.60
2011,02,25,15,46,-1.60
2011,02,25,15,47,-1.60
2011,02,25,15,48,-1.60
2011,02,25,15,49,-1.60
2011,02,25,15,50,-1.60
2011,02,25,15,51,-1.60
2011,02,25,15,52,-1.60
2011,02,25,15,53,-1.60
2011,02,25,15,54,-1.60
2011,02,25,15,55,-1.60
2011,02,25,15,56,-1.60
2011,02,25,15,57,-1.50
2011,02,25,15,58,-1.50
2011,02,25,15,59,-1.50
2011,02,25,16,00,-1.40
2011,02,25,16,01,-1.40
2011,02,25,16,02,-1.50
2011,02,25,16,03,-1.60
2011,02,25,16,04,-1.60
2011,02,25,16,05,-1.60
2011,02,25,16,06,-1.60
2011,02,25,16,07,-1.60
2011,02,25,16,08,-1.50
2011,02,25,16,09,-1.50
2011,02,25,16,10,-1.50
2011,02,25,16,11,-1.50
2011,02,25,16,12,-1.40
2011,02,25,16,13,-1.40
2011,02,25,16,14,-1.40
2011,02,25,16,15,-1.40
2011,02,25,16,16,-1.40
2011,02,25,16,17,-1.40
2011,02,25,16,18,-1.40
2011,02,25,16,19,-1.50
2011,02,25,16,20,-1.60
2011,02,25,16,21,-1.60
2011,02,25,16,22,-1.70
2011,02,25,16,23,-1.70
2011,02,25,16,24,-1.70
2011,02,25,16,25,-1.60
2011,02,25,16,26,-1.60
2011,02,25,16,27,-1.60
2011,02,25,16,28,-1.60
2011,02,25,16,29,-1.50
2011,02,25,16,30,-1.50
2011,02,25,16,31,-1.40
2011,02,25,16,32,-1.40
2011,02,25,16,33,-1.50
2011,02,25,16,34,-1.50
2011,02,25,16,35,-1.50
2011,02,25,16,36,-1.50
2011,02,25,16,37,-1.50
2011,02,25,16,38,-1.40
2011,02,25,16,39,-1.40
2011,02,25,16,40,-1.40
2011,02,25,16,41,-1.40
2011,02,25,16,42,-1.40
2011,02,25,16,43,-1.40
2011,02,25,16,44,-1.40
2011,02,25,16,45,-1.40
2011,02,25,16,46,-1.40
2011,02,25,16,47,-1.40
2011,02,25,16,48,-1.40
2011,02,25,16,49,-1.50
2011,02,25,16,50,-1.50
2011,02,25,16,51,-1.50
2011,02,25,16,52,-1.50
2011,02,25,16,53,-1.50
2011,02,25,16,54,-1.40
2011,02,25,16,55,-1.40
2011,02,25,16,56,-1.40
2011,02,25,16,57,-1.40
2011,02,25,16,58,-1.50
2011,02,25,16,59,-1.60
2011,02,25,17,00,-1.70
2011,02,25,17,01,-1.70
2011,02,25,17,02,-1.80
2011,02,25,17,03,-1.80
2011,02,25,17,04,-1.80
2011,02,25,17,05,-1.80
2011,02,25,17,06,-1.80
2011,02,25,17,07,-1.80
2011,02,25,17,08,-1.80
2011,02,25,17,09,-1.80
2011,02,25,17,10,-1.80
2011,02,25,17,11,-1.80
2011,02,25,17,12,-1.80
2011,02,25,17,13,-1.80
2011,02,25,17,14,-1.80
2011,02,25,17,15,-1.80
2011,02,25,17,16,-1.70
2011,02,25,17,17,-1.80
2011,02,25,17,18,-1.80
2011,02,25,17,19,-1.80